User: anonymous   Login
Location: Unspecified
(0.0000°N, 0.0000°E)
Time: 00:21:56
(UTC+00:00)
Language:

MUOS 4 - Orbit

View from above orbital plane
View from above orbital plane
View from above satellite
View from above satellite

Ground track
Ground track

The orbit data is extracted from the following two-line orbital elements,

1 40887U 15044A   17066.25046290 0.00000000  00000-0  00000-0 0    02
2 40887   4.4389 330.1879 0057784   2.0027 358.0457  1.00270000    02
Epoch (UTC): 07 March 2017 06:00:39
Eccentricity: 0.0057784
inclination: 4.4389°
perigee height: 35543 km
apogee height: 36030 km
right ascension of ascending node: 330.1879°
argument of perigee: 2.0027°
revolutions per day: 1.00270000
mean anomaly at epoch: 358.0457°
orbit number at epoch: 0

The dashed part of the orbit path shows where the satellite is in the earth's shadow,  

DLR